#timestamp,LO_Frequency,Hit,StdDev 
1695110415.5,286046997.6,P
1695110435.3,286046995.0,P
1695110455.2,286046995.6,N
1695110475.9,286046995.9,N
1695110495.7,286046993.5,Y
1695110515.6,286046998.9,P
1695110535.4,286046996.5,P
1695110555.2,286046997.2,N
1695110575.1,286046999.3,N
1695110576.0,286046999.3,N
1695110595.8,286046998.7,N
1695110615.7,286046997.0,N
1695110635.5,286046996.6,Y
1695110655.3,286046999.0,P
1695110675.2,286046999.3,N
1695110695.0,286046998.9,N
1695110695.9,286046998.9,N
1695110715.8,286046998.5,Y
1695110735.6,286047001.8,P
1695110755.4,286047002.2,N
1695110775.3,286047001.3,N
1695110795.1,286047002.5,N
1695110796.0,286047002.5,N
1695110815.8,286047001.7,N
1695110835.7,286047000.2,N
1695110855.5,286047000.4,N
1695110875.3,286047002.3,N
1695110895.2,286047000.0,N
1695110915.0,286047000.5,N
1695110915.9,286047000.5,N
1695110935.8,286047000.6,N
1695110955.6,286047002.6,N
1695110975.4,286047002.6,N
1695110995.3,286047001.6,N
1695111015.1,286047002.2,N
1695111035.8,286047002.0,N
1695111055.7,286047000.7,N
1695111075.5,286046999.4,N
1695111095.4,286046999.3,N
1695111115.2,286047000.9,N
1695111135.0,286047000.5,N
1695111135.9,286047000.5,N
1695111155.8,286047002.2,N
1695111175.6,286047002.5,N
1695111195.4,286047002.1,N
1695111215.3,286047001.8,N
1695111235.1,286047001.5,N
1695111255.9,286047002.3,N
1695111275.7,286047002.1,N
1695111295.5,286047002.1,N
1695111315.4,286047004.3,Y
1695111335.2,286047001.7,P
1695111355.0,286047001.6,P
1695111356.0,286047001.6,P
1695111375.8,286047000.1,N
1695111395.6,286047002.3,Y
1695111415.5,286046998.8,P
1695111435.3,286046998.5,N
1695111455.1,286047000.7,N
1695111475.9,286047001.0,N
1695111495.7,286046999.9,N
1695111515.6,286046999.7,N
1695111535.4,286046999.8,N
1695111555.2,286047002.3,N
1695111575.1,286047001.5,N
1695111576.0,286047001.5,N
1695111595.8,286047000.8,N
1695111615.6,286047003.4,Y
1695111635.5,286047002.6,P
1695111655.3,286047002.0,N
1695111675.2,286047002.1,N
1695111695.9,286046999.0,N
1695111715.7,286047000.4,N
1695111735.6,286047002.8,N
1695111755.4,286046999.7,N
1695111775.2,286047001.4,N
1695111795.1,286047002.2,N
1695111796.0,286047002.2,N
1695111815.8,286047002.0,N
1695111835.7,286047000.1,N
1695111855.5,286046999.8,N
1695111875.3,286047004.2,Y
1695111895.2,286047000.4,P
1695111915.0,286047000.1,N
1695111915.9,286047000.1,N
1695111935.8,286047001.0,N
1695111955.6,286047001.2,N
1695111975.4,286047000.8,N
1695111995.3,286046998.5,Y
1695112015.1,286046998.4,P
1695112035.9,286047000.9,N
1695112055.7,286046998.4,N
1695112075.5,286047001.0,N
1695112095.4,286046998.1,N
1695112115.2,286047001.1,N
1695112135.0,286046998.7,N
1695112135.9,286046998.7,N
1695112155.8,286046999.1,N
1695112175.6,286046996.9,N
1695112195.5,286046996.6,N
1695112215.3,286046997.8,N
1695112235.1,286046995.3,Y
1695112255.9,286046998.7,P
1695112275.7,286046999.0,P
1695112295.5,286046997.1,P
1695112315.4,286046995.4,Y
1695112335.2,286046996.8,P
1695112355.1,286046995.3,P
1695112356.0,286046995.3,P
1695112375.8,286046995.1,Y
1695112395.6,286047002.3,P
1695112415.5,286047000.1,N
1695112435.3,286047000.1,N
1695112455.1,286047002.2,N
1695112475.9,286047002.7,N
1695112495.7,286046998.3,N
1695112515.6,286047000.8,N
1695112535.4,286047000.3,N
1695112555.2,286046998.7,N
1695112575.1,286047001.2,N
1695112576.0,286047001.2,N
1695112595.8,286047000.7,N
1695112615.6,286047000.3,N
1695112635.5,286047002.6,N
1695112655.3,286047000.9,N
1695112675.2,286047000.8,N
1695112695.9,286046999.9,N
1695112715.7,286047000.8,N
1695112735.6,286047002.1,N
1695112755.4,286047002.2,N
1695112775.2,286047001.8,N
1695112795.1,286047001.8,N
1695112796.0,286047001.8,N
1695112815.8,286047001.7,N
1695112835.7,286047003.6,N
1695112855.5,286047002.4,N
1695112875.3,286047002.7,N
1695112895.2,286047003.7,N
1695112915.0,286047001.3,N
1695112915.9,286047001.3,N
1695112935.7,286047001.9,N
1695112955.6,286047001.4,N
1695112975.4,286047002.3,N
1695112995.3,286047002.4,N
1695113015.1,286047002.8,N
1695113016.0,286047002.8,N
1695113035.8,286046998.8,N
1695113055.7,286047002.2,N
1695113075.5,286047003.7,Y
1695113095.4,286047001.5,P
1695113115.2,286047000.3,P
1695113135.0,286046998.6,N
1695113135.9,286046998.6,N
1695113155.8,286046998.5,N
1695113175.6,286046996.5,N
1695113195.4,286047000.3,N
1695113215.3,286046997.0,N
1695113235.1,286046997.0,N
1695113255.9,286046999.0,N
1695113275.7,286046997.6,N
1695113295.5,286046995.0,Y
1695113315.4,286046998.7,P
1695113335.2,286046996.9,P
1695113355.1,286046999.6,N
1695113356.0,286046999.6,N
1695113375.8,286046999.5,N
1695113395.6,286046999.5,N
1695113415.5,286046996.5,Y
1695113435.3,286047001.0,P
1695113455.2,286047000.3,N
1695113475.9,286047000.5,N
1695113495.7,286047002.8,Y
1695113515.6,286047002.5,P
1695113535.4,286047000.2,N
1695113555.2,286047000.8,N
1695113575.1,286046999.9,N
1695113576.0,286046999.9,N
1695113595.8,286046998.5,N
1695113615.7,286046999.2,N
1695113635.5,286046999.4,N
1695113655.3,286046999.2,N
1695113675.2,286046996.7,Y
1695113695.0,286046998.8,P
1695113695.9,286046998.8,N
1695113715.8,286046999.0,N
1695113735.6,286047000.0,N
1695113755.4,286047000.1,N
1695113775.3,286047000.5,N
1695113795.1,286047001.0,N
1695113796.0,286047001.0,N
1695113815.8,286047001.1,N
1695113835.7,286047000.0,N
1695113855.5,286046999.3,N
1695113875.3,286046998.2,N
1695113895.2,286046999.7,N
1695113915.0,286047002.7,Y
1695113915.9,286047002.7,P
1695113935.8,286047004.4,P
1695113955.6,286046999.8,N
1695113975.4,286047000.6,N
1695113995.3,286046999.9,N
